Location: Balsareny
(41.8670°N, 1.8830°E)
Time: 00:37:13
(UTC+02:00)

Envisat - Pass Details

Date: 15 August 2024
Orbit: 762 x 764 km, 98.3° (Epoch: 08 September)

Event Time Altitude Azimuth Distance (km) Brightness Sun altitude
Rises 04:01:18 0° 28° (NNE) 3,234 7.5 -27.3°
Reaches altitude 10° 04:04:09 10° 44° (NE) 2,302 6.4 -27.0°
Maximum altitude 04:07:59 21° 93° (E) 1,651 5.0 -26.6°
Enters shadow 04:10:38 15° 132° (SE) 1,990 5.1 -26.3°
